Terug naar catalogus

IRIDIUM 33 DEB

ActiefPO
NORAD 34145·DEBRIS·🇺🇸 United States

Gelanceerd Sep 14, 1997 vanaf Baikonur Cosmodrome

Loading…

Volgende Passages (komende 24 uur)

TLE

VersSource: Space-Track

Epoch: Sep 14, 2026, 14:33 UTC

1 34145U 97051DY  26257.60676172  .00002275  00000-0  65042-3 0  9992
2 34145  86.2135 209.4410 0048897 263.4934  96.0699 14.44021091916170

Volg IRIDIUM 33 DEB in realtime met AllMySat

Download on the App Store